User: anonymous   Login
Location: Newark
(29.9790°N, 31.1340°E)
Time: 02:57:39
(UTC+00:00)
Language:

A-11 Canister half - Orbit

View from above orbital plane
View from above orbital plane
View from above satellite
View from above satellite

Ground track
Ground track

The orbit data is extracted from the following two-line orbital elements,

1    51U 60009C   20019.52682488 -.00000165 +00000-0 -76895-3 0  9998
2    51 047.2134 091.2506 0104560 078.6298 282.6216 12.18271612645810
Epoch (UTC): 19 January 2020 12:38:37
Eccentricity: 0.0104560
inclination: 47.2134°
perigee height: 1516 km
apogee height: 1683 km
right ascension of ascending node: 91.2506°
argument of perigee: 78.6298°
revolutions per day: 12.18271612
mean anomaly at epoch: 282.6216°
orbit number at epoch: 64581

The dashed part of the orbit path shows where the satellite is in the earth's shadow,  

DLR